Location: Siloam Springs
(36.1881°N, 94.5403°W)
Time: 04:25:39
(UTC-05:00)

CUBESAT XI-V - Pass Details

Date: 31 May 2024
Orbit: 657 x 679 km, 98.2° (Epoch: 16 June)

Event Time Altitude Azimuth Distance (km) Brightness Sun altitude
Exits shadow 03:09:29 49° 106° (ESE) 846 ? -25.9°
Maximum altitude 03:10:08 54° 74° (ENE) 799 ? -25.9°
Drops below altitude 10° 03:14:32 10° 357° (N) 2,075 ? -25.4°
Sets 03:16:48 0° 353° (N) 2,991 ? -25.2°
